Home   Weather   Foochow   Past weeks

Flag for China Past Weather in Foochow, Fujian, China — Yesterday and Last 2 Weeks

Now
68 °F

Fog.


Feels Like: 68 °F
Forecast: 61 / 84 °F
Wind: 1 mph from North

Location: Fuzhou Airport

Current Time: Apr 25, 2017 at 8:35:55 pm

Latest Report: Apr 25, 2017 at 8:00 pm


Visibility: 3 mi

Pressure: 29.92 "Hg

Humidity: 94%

Dew Point: 66 °F

Location of FoochowLocation

Past Weather in Foochow — Graph

°F

Foochow Temperature Yesterday

Maximum temperature yesterday: 73 °F (at 12:00 pm)
Minimum temperature yesterday: 59 °F (at 6:00 am)
Average temperature yesterday: 66 °F

High & Low Weather Summary for the Past Weeks

 TemperatureHumidityPressure
High84 °F (Apr 17, 10:00 am)100% (Apr 10, 7:00 pm)30.15 "Hg (Apr 10, 7:00 pm)
Low55 °F (Apr 14, 3:00 am)27% (Apr 14, 12:00 pm)29.65 "Hg (Apr 10, 7:00 pm)
Average67 °F81%29.92 "Hg
* Reported Apr 10 7:00 pm — Apr 25 7:00 pm, Foochow, Weather by CustomWeather, © 2017

Note: Actual official high and low records may vary slightly from our data, if they occured in-between our weather recording intervals... More about our weather records

Advertising

Foochow Weather History for the Previous 24 Hours

Scroll right to see more
 ConditionsComfort  
Time TempWeatherWind HumidityBarometerVisibility
7:00 pm
Tue, Apr 25
68 °FPassing clouds.1 mph88%29.89 "Hg4 mi
6:00 pm70 °FPassing clouds.3 mph83%29.89 "Hg5 mi
5:00 pm70 °FPartly sunny.1 mph83%29.89 "Hg6 mi
4:00 pm72 °FBroken clouds.3 mph83%29.89 "Hg4 mi
3:00 pm72 °FLight rain. Fog.3 mph83%29.89 "Hg3 mi
2:00 pm72 °FBroken clouds.3 mph83%29.92 "Hg4 mi
1:00 pm72 °FPartly sunny.3 mph78%29.95 "Hg4 mi
12:00 pm68 °FLight rain. Fog.3 mph88%29.98 "Hg3 mi
11:00 am66 °FLight rain. Fog.8 mph88%30.01 "Hg2 mi
10:00 am70 °FOvercast.3 mph78%30.01 "Hg6 mi
9:00 am70 °FOvercast.3 mph73%30.01 "Hg4 mi
8:00 am68 °FPartly sunny.3 mph73%29.98 "Hg4 mi
7:00 am66 °FPartly sunny.1 mph78%29.98 "Hg4 mi
6:00 am64 °FPartly sunny.3 mph78%29.95 "Hg4 mi
5:00 am64 °FPassing clouds.3 mph78%29.95 "Hg5 mi
4:00 am64 °FPassing clouds.3 mph78%29.95 "HgN/A
3:00 am64 °FPassing clouds.3 mph68%29.95 "HgN/A
2:00 am64 °FPassing clouds.3 mph73%29.98 "HgN/A
1:00 am64 °FPartly cloudy.3 mph73%29.98 "HgN/A
12:00 am66 °FPassing clouds.3 mph68%30.01 "HgN/A
11:00 pm
Mon, Apr 24
64 °FPassing clouds.3 mph78%30.01 "HgN/A
10:00 pm66 °FPassing clouds.3 mph78%30.04 "HgN/A
9:00 pm66 °FPassing clouds.3 mph73%30.04 "HgN/A
8:00 pm66 °FPassing clouds.3 mph68%30.01 "HgN/A
Weather by CustomWeather, © 2017

See weather overviewHow to use our weather pages